(162185) = 2005 EA72 = 2005 EU225 = 1999 NK27

Discovered at Socorro on 1999-07-14 by LINEAR.

Orbit

Orbit type: Main Belt

Note: WebGL enabled browser required.

epoch2024-03-31.0
epoch JD2460400.5
perihelion date2023-03-25.22204
perihelion JD2460028.72204
argument of perihelion (°)267.51551
ascending node (°)115.81791
inclination (°)10.52067
eccentricity0.2475513
perihelion distance (AU)1.8458614
Tisserand w.r.t. Jupiter3.4
ΔV w.r.t. Earth (km/sec)9.1
semimajor axis (AU)2.4531394
mean anomaly (°)95.36833
mean daily motion (°/day)0.25651960
aphelion distance (AU)3.060
period (years)3.84
P-vector [x]0.90309692
P-vector [y]0.42924826
P-vector [z]-0.01272326
Q-vector [x]-0.39673702
Q-vector [y]0.84530357
Q-vector [z]0.35785697
absolute magnitude15.81
phase slope0.15
uncertainty0
referenceMPEC 2024-F28
observations used693
oppositions19
arc length (days)9918
first opposition used1997
last opposition used2024
residual rms (arc-secs)0.66
perturbers coarse indicatorM-v
perturbers precise indicator003Ek
first observation date used1997-01-09.0
last observation date used2024-03-06.0
computer nameMPCLINUX
JD of orbit computation2456909.350425
perihelion JD uncertainty (days)2.6212E-05
argument of perihelion uncertainty (°)2.2259E-05
ascending node uncertainty (°)2.1356E-05
inclination uncertainty (°)3.3858E-06
eccentricity uncertainty 3.4622E-08
perihelion distance uncertainty (AU)8.6068E-08
Minimum Orbit Intersection Distances (in AU)
for orbit epoch: 2460400.5, reference: E2024-GB3
Mercury1.50812
Venus1.13172
Earth0.88473
Mars0.49771
Jupiter2.47703
Saturn6.54169
Uranus15.5126
Neptune27.6265

Observations

708 total observations over interval: 1997 01 09.22808 – 2024 03 06.439285
These data are available for download (format description).

Date (UT) J2000 RA J2000 Dec Magn Location Ref
1997 01 09.22808 08 29 21.74 +19 39 03.2 19.3 V 691 – Steward Observatory, Kitt Peak-Spacewatch MPS 178177
1997 01 09.25032 08 29 20.37 +19 39 14.2 18.9 V 691 – Steward Observatory, Kitt Peak-Spacewatch MPS 178177
1997 01 09.27254 08 29 19.02 +19 39 25.8 18.8 V 691 – Steward Observatory, Kitt Peak-Spacewatch MPS 178177
1999 07 14.29752 20 15 49.29 -20 01 51.7 18.8   704 – Lincoln Laboratory ETS, New Mexico MPS 5677
1999 07 14.31009 20 15 48.54 -20 01 57.8 19.5   704 – Lincoln Laboratory ETS, New Mexico MPS 5677
1999 07 14.32265 20 15 47.88 -20 02 05.9 18.8   704 – Lincoln Laboratory ETS, New Mexico MPS 5677
1999 07 14.33529 20 15 47.14 -20 02 12.3 18.6   704 – Lincoln Laboratory ETS, New Mexico MPS 5677
1999 07 14.34795 20 15 46.44 -20 02 18.6 18.4   704 – Lincoln Laboratory ETS, New Mexico MPS 5677
1999 07 16.24904 20 14 04.34 -20 19 12.1 19.5   704 – Lincoln Laboratory ETS, New Mexico MPS 5677
1999 07 16.26182 20 14 03.55 -20 19 18.5 19.4   704 – Lincoln Laboratory ETS, New Mexico MPS 5677
1999 07 16.28749 20 14 02.12 -20 19 32.4 19.6   704 – Lincoln Laboratory ETS, New Mexico MPS 5677
1999 07 20.26403 20 10 17.98 -20 55 25.5 17.8 R 699 – Lowell Observatory-LONEOS MPS 82937
1999 07 20.28442 20 10 16.81 -20 55 36.7   699 – Lowell Observatory-LONEOS MPS 82937
1999 07 20.30478 20 10 15.55 -20 55 49.7   699 – Lowell Observatory-LONEOS MPS 82937
2001 01 04.38172 10 01 59.90 +16 23 53.4 19.1   704 – Lincoln Laboratory ETS, New Mexico MPS 178177
2001 01 04.39689 10 01 59.61 +16 24 00.2 20.1   704 – Lincoln Laboratory ETS, New Mexico MPS 178177
2001 01 04.42720 10 01 58.83 +16 24 11.7 20.3   704 – Lincoln Laboratory ETS, New Mexico MPS 178177
2001 01 04.44236 10 01 58.44 +16 24 18.5 19.6   704 – Lincoln Laboratory ETS, New Mexico MPS 178177
2001 01 20.37633 09 52 38.15 +18 35 53.5 19.8 V 691 – Steward Observatory, Kitt Peak-Spacewatch MPS 178177
2001 01 20.39821 09 52 37.07 +18 36 05.5 20.3 V 691 – Steward Observatory, Kitt Peak-Spacewatch MPS 178177
2001 01 20.41996 09 52 36.01 +18 36 17.2 20.3 V 691 – Steward Observatory, Kitt Peak-Spacewatch MPS 178177
2001 02 03.33035 09 39 57.89 +20 42 46.4 19.4   704 – Lincoln Laboratory ETS, New Mexico MPS 178177
2001 02 03.36003 09 39 56.04 +20 43 03.2 19.3   704 – Lincoln Laboratory ETS, New Mexico MPS 178177
2001 02 03.37488 09 39 55.15 +20 43 10.4 19.0   704 – Lincoln Laboratory ETS, New Mexico MPS 178177
2001 02 17.24043 09 26 08.19 +22 34 59.0 18.8   704 – Lincoln Laboratory ETS, New Mexico MPS 178177
2001 02 17.26828 09 26 06.54 +22 35 10.8 19.5   704 – Lincoln Laboratory ETS, New Mexico MPS 178177
2001 02 17.28213 09 26 05.74 +22 35 17.9 19.1   704 – Lincoln Laboratory ETS, New Mexico MPS 178177
2001 02 17.29605 09 26 04.92 +22 35 22.9 18.9   704 – Lincoln Laboratory ETS, New Mexico MPS 178177
2002 04 12.43426 14 53 23.83 -00 42 00.8 20.4   644 – Palomar Mountain/NEAT MPS 178177
2002 04 12.44472 14 53 23.34 -00 41 57.4 20.1   644 – Palomar Mountain/NEAT MPS 178177
2002 04 12.45506 14 53 22.84 -00 41 54.1 20.0   644 – Palomar Mountain/NEAT MPS 178178
2003 07 08.42649 22 30 53.85 -14 40 25.8 18.6   644 – Palomar Mountain/NEAT MPS 178178
2003 07 08.44822 22 30 54.28 -14 40 34.0 19.5   644 – Palomar Mountain/NEAT MPS 178178
2003 07 08.46932 22 30 54.70 -14 40 41.9 19.5   644 – Palomar Mountain/NEAT MPS 178178
2003 07 25.32051 22 33 07.34 -17 00 39.0 18.6   704 – Lincoln Laboratory ETS, New Mexico MPS 178178
2003 07 25.32605 22 33 07.37 -17 00 42.3 17.5   644 – Palomar Mountain/NEAT MPS 178178
2003 07 25.33201 22 33 07.23 -17 00 45.3 18.6   704 – Lincoln Laboratory ETS, New Mexico MPS 178178
2003 07 25.34239 22 33 07.15 -17 00 51.6 18.7   704 – Lincoln Laboratory ETS, New Mexico MPS 178178
2003 07 25.35829 22 33 07.03 -17 01 02.8 18.3   644 – Palomar Mountain/NEAT MPS 178178
2003 07 25.36289 22 33 06.90 -17 01 05.6 18.3   704 – Lincoln Laboratory ETS, New Mexico MPS 178178
2003 07 25.39645 22 33 06.67 -17 01 26.9 18.2   644 – Palomar Mountain/NEAT MPS 178178
2003 09 19.21425 22 00 22.82 -26 41 08.1 17.8 R 699 – Lowell Observatory-LONEOS MPS 178178
2003 09 19.22421 22 00 22.57 -26 41 10.6   699 – Lowell Observatory-LONEOS MPS 178178
2003 09 19.23418 22 00 22.27 -26 41 13.5   699 – Lowell Observatory-LONEOS MPS 178178
2003 09 19.24407 22 00 21.96 -26 41 16.3   699 – Lowell Observatory-LONEOS MPS 178178
2003 10 17.14983 22 01 57.70 -26 32 30.1 19.2   704 – Lincoln Laboratory ETS, New Mexico MPS 178178
2003 10 17.16153 22 01 58.09 -26 32 28.4 19.5   704 – Lincoln Laboratory ETS, New Mexico MPS 178178
2003 10 17.17379 22 01 58.51 -26 32 24.2 19.9   704 – Lincoln Laboratory ETS, New Mexico MPS 178178
2005 03 02.32863 10 31 39.49 +20 22 21.5 19.1 R 703 – Catalina Sky Survey MPS 128146
2005 03 02.33712 10 31 39.07 +20 22 25.9 19.5 R 703 – Catalina Sky Survey MPS 128146
2005 03 02.34572 10 31 38.51 +20 22 28.9 19.3 R 703 – Catalina Sky Survey MPS 128146
2005 03 02.35422 10 31 38.07 +20 22 32.3 19.9 R 703 – Catalina Sky Survey MPS 128146
2005 03 09.25656 10 25 25.54 +21 06 11.8 18.5 R 703 – Catalina Sky Survey MPS 129350
2005 03 09.26461 10 25 25.12 +21 06 13.9 18.5 R 703 – Catalina Sky Survey MPS 129350
2005 03 09.27270 10 25 24.64 +21 06 16.5 18.8 R 703 – Catalina Sky Survey MPS 129350
2005 03 09.28068 10 25 24.31 +21 06 19.1 19.1 R 703 – Catalina Sky Survey MPS 129350
2005 03 10.290007 10 24 32.487 +21 11 55.13 19.69 V 645 – Apache Point-Sloan Digital Sky Survey MPS 390099
2005 03 10.293479 10 24 32.306 +21 11 56.22 20.39   645 – Apache Point-Sloan Digital Sky Survey MPS 390099
2005 03 16.24326 10 19 47.01 +21 40 36.8 19.1 R 703 – Catalina Sky Survey MPS 129350
2005 03 16.25243 10 19 46.67 +21 40 38.6 19.1 R 703 – Catalina Sky Survey MPS 129350
2005 03 16.26163 10 19 46.22 +21 40 42.6 19.5 R 703 – Catalina Sky Survey MPS 129350
2005 03 16.27082 10 19 45.69 +21 40 43.7 18.9 R 703 – Catalina Sky Survey MPS 129350
2006 05 24.24729 15 09 09.53 -02 53 51.7 19.8 R 699 – Lowell Observatory-LONEOS MPS 178178
2006 05 24.27289 15 09 08.15 -02 53 50.0   699 – Lowell Observatory-LONEOS MPS 178178
2006 05 24.29849 15 09 06.62 -02 53 48.1   699 – Lowell Observatory-LONEOS MPS 178178
2006 05 24.32408 15 09 05.30 -02 53 47.1   699 – Lowell Observatory-LONEOS MPS 178178
2007 08 21.70637 01 07 24.49 -09 38 53.1 18.8 V E12 – Siding Spring Survey MPS 213647
2007 08 21.71605 01 07 24.74 -09 38 58.4 18.2 V E12 – Siding Spring Survey MPS 213647
2007 08 21.72578 01 07 24.96 -09 39 03.6 18.2 V E12 – Siding Spring Survey MPS 213647
2007 08 21.73547 01 07 25.21 -09 39 09.0 18.1 V E12 – Siding Spring Survey MPS 213647
2007 09 05.38036 01 10 34.21 -12 08 35.3 17.9 V 703 – Catalina Sky Survey MPS 214952
2007 09 05.39559 01 10 34.14 -12 08 45.8 17.9 V 703 – Catalina Sky Survey MPS 214952
2007 09 05.40317 01 10 34.14 -12 08 50.4 17.9 V 703 – Catalina Sky Survey MPS 214952
2007 09 14.34867 01 08 57.91 -13 49 33.3 17.6 V 703 – Catalina Sky Survey MPS 215945
2007 09 14.35517 01 08 57.76 -13 49 37.9 17.6 V 703 – Catalina Sky Survey MPS 215945
2007 09 14.36173 01 08 57.62 -13 49 42.1 17.8 V 703 – Catalina Sky Survey MPS 215945
2007 09 14.36824 01 08 57.44 -13 49 46.6 17.9 V 703 – Catalina Sky Survey MPS 215945
2007 10 06.65478 00 56 10.82 -17 14 47.8 17.3 V E12 – Siding Spring Survey MPS 220056
2007 10 06.66183 00 56 10.50 -17 14 50.1 17.4 V E12 – Siding Spring Survey MPS 220056
2007 10 06.66887 00 56 10.17 -17 14 52.4 17.5 V E12 – Siding Spring Survey MPS 220056
2007 10 06.67591 00 56 09.85 -17 14 55.2 17.5 V E12 – Siding Spring Survey MPS 220056
2007 10 12.23324 00 52 10.95 -17 42 05.5 18.1 V 703 – Catalina Sky Survey MPS 222286
2007 10 12.24073 00 52 10.63 -17 42 07.4 18.0 V 703 – Catalina Sky Survey MPS 222286
2007 10 12.24823 00 52 10.27 -17 42 09.0 17.9 V 703 – Catalina Sky Survey MPS 222286
2007 10 12.25567 00 52 09.94 -17 42 10.5 17.6 V 703 – Catalina Sky Survey MPS 222286
2007 11 07.17043 00 40 07.42 -16 53 02.9 17.9 V 703 – Catalina Sky Survey MPS 226536
2007 11 07.17687 00 40 07.35 -16 53 00.2 18.0 V 703 – Catalina Sky Survey MPS 226536
2007 11 07.18326 00 40 07.32 -16 52 56.8 17.9 V 703 – Catalina Sky Survey MPS 226536
2007 11 07.18969 00 40 07.24 -16 52 54.4 18.0 V 703 – Catalina Sky Survey MPS 226536
